FW9110 Weather Reports


time (UTC)temp
C
wind
direction
speed
KPH
gust
KPH
rain 1hr
cm
rain 24hr
cm
rain mn
cm
humidity
%
barometer
mb
20260510100428 8 314 0.0 0.0 0.00 0.00 0.00 95 1010.9
20260510095925 9 314 0.0 0.0 0.00 0.00 0.00 95 1010.9
20260510095421 9 314 0.0 0.0 0.00 0.00 0.00 95 1010.9
20260510094920 9 314 0.0 0.0 0.00 0.00 0.00 95 1010.9
20260510094415 8 313 0.0 0.0 0.00 0.00 0.00 95 1010.8
20260510093911 9 313 0.0 0.0 0.00 0.00 0.00 95 1010.6
20260510093407 9 313 0.0 0.0 0.00 0.00 0.00 95 1010.7
20260510092904 9 314 0.0 0.0 0.00 0.00 0.00 95 1010.9
20260510092401 9 313 0.0 0.0 0.00 0.00 0.00 95 1010.6
20260510091855 9 313 0.0 0.0 0.00 0.00 0.00 95 1010.7
20260510091353 9 313 0.0 0.0 0.00 0.00 0.00 95 1010.8
20260510090849 9 313 0.0 0.0 0.00 0.00 0.00 95 1010.7
20260510090346 9 313 0.0 0.0 0.00 0.00 0.00 95 1010.6
20260510085841 9 313 0.0 0.0 0.00 0.00 0.00 95 1010.8
20260510085336 9 313 0.0 0.0 0.00 0.00 0.00 95 1010.7
20260510084832 9 314 0.0 0.0 0.00 0.00 0.00 95 1010.7
20260510084330 9 314 0.0 0.0 0.00 0.00 0.00 95 1010.8
20260510083826 10 314 0.0 0.0 0.00 0.00 0.00 95 1010.8
20260510083323 10 317 0.0 0.0 0.00 0.00 0.00 95 1010.6
20260510082818 10 335 0.0 1.6 0.00 0.00 0.00 95 1010.9
20260510082316 10 318 1.6 3.2 0.00 0.00 0.00 95 1010.8
20260510081815 10 325 0.0 1.6 0.00 0.00 0.00 95 1010.6
20260510081311 9 325 0.0 0.0 0.00 0.00 0.00 95 1010.4
20260510080807 8 42 3.2 4.8 0.00 0.00 0.00 95 1010.8
20260510080302 8 322 0.0 0.0 0.00 0.00 0.00 95 1010.1
20260510075759 8 322 0.0 0.0 0.00 0.00 0.00 95 1010.3
20260510075256 8 322 0.0 0.0 0.00 0.00 0.00 95 1010.1
20260510074753 8 322 0.0 0.0 0.00 0.00 0.00 95 1010.1
20260510074250 8 322 0.0 0.0 0.00 0.00 0.00 95 1009.9
20260510073746 8 322 0.0 0.0 0.00 0.00 0.00 95 1009.9
20260510073242 8 322 0.0 0.0 0.00 0.00 0.00 95 1009.9
20260510072737 8 322 0.0 0.0 0.00 0.00 0.00 95 1009.9
20260510072235 8 322 0.0 0.0 0.00 0.00 0.00 95 1009.9
20260510071731 8 322 0.0 0.0 0.00 0.00 0.00 95 1009.9
20260510071228 8 322 0.0 0.0 0.00 0.00 0.00 95 1009.9
20260510070726 8 322 0.0 0.0 0.00 0.00 0.00 95 1009.8
20260510070223 8 322 0.0 0.0 0.00 0.00 0.00 95 1009.7
20260510065718 8 322 0.0 0.0 0.00 0.00 0.00 95 1009.7
20260510065214 8 322 0.0 0.0 0.00 0.00 0.00 95 1009.7
20260510064711 8 322 0.0 0.0 0.00 0.00 0.00 95 1009.5
20260510064209 8 322 0.0 0.0 0.00 0.00 0.00 95 1009.5
20260510063705 8 322 0.0 0.0 0.00 0.00 0.00 95 1009.3
20260510063201 8 322 0.0 0.0 0.00 0.00 0.00 95 1009.4
20260510062658 8 322 0.0 0.0 0.00 0.00 0.00 95 1009.3
20260510062154 9 322 0.0 0.0 0.00 0.00 0.00 95 1009.3
20260510061649 8 322 0.0 0.0 0.00 0.00 0.00 95 1009.5
20260510061147 8 322 0.0 0.0 0.00 0.00 0.00 95 1009.5
20260510060643 8 322 0.0 0.0 0.00 0.00 0.00 95 1009.5
20260510060140 9 322 0.0 0.0 0.00 0.00 0.00 95 1009.7
20260510055636 9 322 0.0 0.0 0.00 0.00 0.00 95 1009.7
20260510055134 9 322 0.0 0.0 0.00 0.00 0.00 95 1009.6
20260510054629 9 322 0.0 0.0 0.00 0.00 0.00 95 1009.8
20260510054125 9 322 0.0 0.0 0.00 0.00 0.00 95 1009.6
20260510053624 9 322 0.0 0.0 0.00 0.00 0.00 95 1009.6
20260510053121 9 322 0.0 0.0 0.00 0.00 0.00 95 1009.8
20260510052617 9 322 0.0 0.0 0.00 0.00 0.00 95 1009.6
20260510052114 10 322 0.0 0.0 0.00 0.00 0.00 95 1009.7
20260510051609 10 322 0.0 0.0 0.00 0.00 0.00 95 1009.9
20260510051107 10 322 0.0 1.6 0.00 0.00 0.00 95 1009.9
20260510050604 10 322 0.0 0.0 0.00 0.00 0.00 95 1009.9
20260510050101 10 322 0.0 0.0 0.00 0.00 0.00 95 1010.0
20260510045558 10 322 0.0 0.0 0.00 0.00 0.00 95 1009.8
20260510045053 10 322 0.0 0.0 0.00 0.00 0.00 95 1010.1
20260510044550 10 322 0.0 0.0 0.00 0.00 0.00 95 1010.0
20260510044048 10 322 0.0 0.0 0.00 0.00 0.00 95 1010.0
20260510043543 10 322 0.0 0.0 0.00 0.00 0.00 95 1010.0
20260510043039 10 322 0.0 0.0 0.00 0.00 0.00 95 1010.0
20260510042539 10 322 0.0 0.0 0.00 0.00 0.00 95 1009.9
20260510042034 10 322 0.0 0.0 0.00 0.00 0.00 95 1009.7
20260510041532 10 322 0.0 0.0 0.00 0.00 0.00 95 1009.7
20260510041029 10 322 0.0 0.0 0.00 0.00 0.00 95 1010.0
20260510040525 10 322 0.0 0.0 0.00 0.00 0.00 95 1009.8
20260510040021 10 322 0.0 0.0 0.00 0.00 0.00 95 1010.1
20260510035518 10 322 0.0 0.0 0.00 0.00 0.00 95 1010.1
20260510035017 10 322 0.0 0.0 0.00 0.00 0.00 95 1010.0
20260510034516 10 322 0.0 0.0 0.00 0.00 0.00 95 1010.0
20260510034012 10 322 0.0 0.0 0.00 0.00 0.00 95 1009.8
20260510033508 11 322 0.0 0.0 0.00 0.00 0.00 95 1010.0
20260510033006 10 322 0.0 0.0 0.00 0.00 0.00 95 1009.9
20260510032503 10 322 0.0 0.0 0.00 0.00 0.00 95 1009.9
20260510031957 11 322 0.0 0.0 0.00 0.00 0.00 95 1010.0
20260510031453 11 322 0.0 0.0 0.00 0.00 0.00 95 1010.1
20260510030949 11 322 0.0 0.0 0.00 0.00 0.00 95 1009.8
20260510030444 11 322 0.0 0.0 0.00 0.00 0.00 95 1009.9
20260510025942 11 322 0.0 0.0 0.00 0.00 0.00 95 1009.6
20260510025439 11 322 0.0 0.0 0.00 0.00 0.00 95 1009.7
20260510024937 11 322 0.0 0.0 0.00 0.00 0.00 95 1009.6
20260510024433 11 322 0.0 0.0 0.00 0.00 0.00 95 1009.5
20260510023929 11 322 0.0 0.0 0.00 0.00 0.00 95 1009.6
20260510023425 11 322 0.0 0.0 0.00 0.00 0.00 95 1009.6
20260510022922 11 322 0.0 0.0 0.00 0.00 0.00 95 1009.6
20260510022421 12 322 0.0 0.0 0.00 0.00 0.00 94 1009.5
20260510021920 11 322 0.0 0.0 0.00 0.00 0.00 94 1009.7
20260510021419 12 322 0.0 0.0 0.00 0.00 0.00 94 1009.6
20260510020915 12 322 0.0 0.0 0.00 0.00 0.00 94 1009.6
20260510020410 12 322 0.0 0.0 0.00 0.00 0.00 94 1009.6
20260510015906 12 322 0.0 0.0 0.00 0.00 0.00 93 1009.5
20260510015402 12 322 0.0 0.0 0.00 0.00 0.00 93 1009.8
20260510014857 12 322 0.0 0.0 0.00 0.00 0.00 93 1009.4
20260510014355 12 322 0.0 0.0 0.00 0.00 0.00 93 1009.4
20260510013851 12 322 0.0 0.0 0.00 0.00 0.00 92 1009.4
20260510013346 12 322 0.0 0.0 0.00 0.00 0.00 92 1009.5
20260510012841 12 322 0.0 0.0 0.00 0.00 0.00 92 1009.4
20260510012342 12 322 0.0 0.0 0.00 0.00 0.00 92 1009.2
20260510011837 12 322 0.0 0.0 0.00 0.00 0.00 92 1009.2
20260510011332 12 322 0.0 0.0 0.00 0.00 0.00 91 1009.2
20260510010829 12 322 0.0 0.0 0.00 0.00 0.00 91 1009.0
20260510010326 12 322 0.0 0.0 0.00 0.00 0.00 91 1009.0
20260510005823 12 322 0.0 0.0 0.00 0.00 0.00 90 1009.0
20260510005319 13 322 0.0 0.0 0.00 0.00 0.00 89 1008.9
20260510004817 13 322 0.0 0.0 0.00 0.00 0.00 89 1008.9
20260510004314 13 322 0.0 0.0 0.00 0.00 0.00 88 1008.8
20260510003812 13 322 0.0 0.0 0.00 0.00 0.00 87 1008.9
20260510003308 13 322 0.0 0.0 0.00 0.00 0.00 86 1008.8
20260510002807 14 322 0.0 0.0 0.00 0.00 0.00 85 1008.8
20260510002307 14 322 0.0 0.0 0.00 0.00 0.00 84 1008.7
20260510001801 15 322 0.0 0.0 0.00 0.00 0.00 83 1008.8
20260510001259 15 322 0.0 0.0 0.00 0.00 0.00 82 1008.7
20260510000754 15 322 0.0 0.0 0.00 0.00 0.00 81 1008.7
20260510000253 15 322 0.0 0.0 0.00 0.00 0.00 80 1008.7
20260509235750 15 322 0.0 0.0 0.00 0.00 0.00 79 1008.5
20260509235246 16 322 0.0 0.0 0.00 0.00 0.00 79 1008.6
20260509234741 16 329 0.0 0.0 0.00 0.00 0.00 78 1008.6
20260509234239 16 333 0.0 0.0 0.00 0.00 0.00 77 1008.7
20260509233737 16 332 0.0 0.0 0.00 0.00 0.00 76 1008.7
20260509233234 17 331 0.0 0.0 0.00 0.00 0.00 75 1008.7
20260509232730 17 351 1.6 1.6 0.00 0.00 0.00 74 1008.5
20260509232227 17 322 0.0 0.0 0.00 0.00 0.00 73 1008.6
20260509231724 18 338 1.6 1.6 0.00 0.00 0.00 70 1008.7
20260509231221 18 333 1.6 1.6 0.00 0.00 0.00 69 1008.5
20260509230719 18 353 1.6 3.2 0.00 0.00 0.00 69 1008.5
20260509230215 18 340 1.6 3.2 0.00 0.00 0.00 68 1008.4
20260509225710 18 327 1.6 1.6 0.00 0.00 0.00 68 1008.4
20260509225206 19 320 0.0 0.0 0.00 0.00 0.00 67 1008.4
20260509224702 18 292 1.6 1.6 0.00 0.00 0.00 68 1008.5
20260509224159 19 307 1.6 3.2 0.00 0.00 0.00 67 1008.5
20260509223656 19 319 1.6 1.6 0.00 0.00 0.00 66 1008.4
20260509223153 19 282 3.2 3.2 0.00 0.00 0.00 65 1008.1
20260509222651 19 12 3.2 3.2 0.00 0.00 0.00 65 1008.4
20260509222146 19 329 1.6 3.2 0.00 0.00 0.00 65 1008.5
20260509221642 18 337 4.8 4.8 0.00 0.00 0.00 66 1008.6
20260509221137 18 300 1.6 3.2 0.00 0.00 0.00 66 1008.7
20260509220634 18 334 0.0 1.6 0.00 0.00 0.00 68 1008.7
20260509220130 18 324 0.0 1.6 0.00 0.00 0.00 70 1008.8
20260509215626 17 313 0.0 0.0 0.00 0.00 0.00 70 1008.7
20260509215123 17 312 1.6 1.6 0.00 0.00 0.00 71 1008.6
20260509214620 17 338 3.2 3.2 0.00 0.00 0.00 71 1008.6
20260509214117 17 335 0.0 1.6 0.00 0.00 0.00 71 1008.7
20260509213613 17 9 3.2 3.2 0.00 0.00 0.00 70 1008.7
20260509213109 17 353 3.2 4.8 0.00 0.00 0.00 69 1008.6
20260509212607 18 314 3.2 8.0 0.00 0.00 0.00 68 1008.6
20260509212104 17 351 3.2 3.2 0.00 0.00 0.00 70 1008.6
20260509211559 18 21 3.2 4.8 0.00 0.00 0.00 69 1008.5
20260509211057 18 329 0.0 1.6 0.00 0.00 0.00 69 1008.5
20260509210553 17 332 0.0 1.6 0.00 0.00 0.00 70 1008.5
20260509210049 18 333 3.2 4.8 0.00 0.00 0.00 69 1008.3
20260509205544 18 310 1.6 1.6 0.00 0.00 0.00 69 1008.6
20260509205039 17 340 3.2 4.8 0.00 0.00 0.00 70 1008.4
20260509204536 17 351 1.6 1.6 0.00 0.00 0.00 70 1008.4
20260509204032 17 41 3.2 3.2 0.00 0.00 0.00 69 1008.2
20260509203528 17 312 1.6 1.6 0.00 0.00 0.00 70 1008.5
20260509203027 17 326 0.0 1.6 0.00 0.00 0.00 70 1008.6
20260509202521 18 332 1.6 1.6 0.00 0.00 0.00 69 1008.6
20260509202017 18 13 1.6 1.6 0.00 0.00 0.00 68 1008.7
20260509201512 18 341 3.2 3.2 0.00 0.00 0.00 66 1008.7
20260509201009 18 321 0.0 1.6 0.00 0.00 0.00 67 1009.0
20260509200504 19 341 1.6 3.2 0.00 0.00 0.00 65 1009.0
20260509200001 19 319 0.0 1.6 0.00 0.00 0.00 65 1008.8
20260509195456 19 304 0.0 1.6 0.00 0.00 0.00 64 1008.8
20260509194955 19 354 1.6 3.2 0.00 0.00 0.00 64 1008.9
20260509194451 19 314 1.6 1.6 0.00 0.00 0.00 65 1008.9
20260509193949 19 320 1.6 3.2 0.00 0.00 0.00 65 1008.9
20260509193448 19 220 3.2 3.2 0.00 0.00 0.00 64 1008.9
20260509192945 18 313 1.6 3.2 0.00 0.00 0.00 64 1009.0
20260509192442 18 333 1.6 1.6 0.00 0.00 0.00 66 1009.0
20260509191937 18 336 3.2 4.8 0.00 0.00 0.00 65 1008.9
20260509191432 18 350 4.8 4.8 0.00 0.00 0.00 65 1008.9
20260509190928 18 308 1.6 3.2 0.00 0.00 0.00 67 1009.2
20260509190426 17 5 4.8 8.0 0.00 0.00 0.00 69 1009.3
20260509185923 17 53 6.4 11.3 0.00 0.00 0.00 70 1009.1
20260509185421 17 324 3.2 3.2 0.00 0.00 0.00 73 1009.2
20260509184917 17 5 1.6 3.2 0.00 0.00 0.00 79 1009.5
20260509184414 17 262 3.2 4.8 0.00 0.00 0.00 77 1009.8
20260509183911 17 323 1.6 3.2 0.00 0.00 0.00 75 1009.7
20260509183405 17 339 0.0 0.0 0.00 0.00 0.00 76 1009.8
20260509182902 17 305 0.0 0.0 0.00 0.00 0.00 77 1010.0
20260509182359 16 324 0.0 0.0 0.00 0.00 0.00 77 1009.8
20260509181856 16 313 0.0 1.6 0.00 0.00 0.00 77 1010.0
20260509181353 16 307 0.0 0.0 0.00 0.00 0.00 79 1010.1
20260509180851 16 305 0.0 0.0 0.00 0.00 0.00 79 1010.1
20260509180346 16 305 0.0 0.0 0.00 0.00 0.00 79 1010.1
20260509175843 17 304 1.6 1.6 0.00 0.00 0.00 77 1010.2
20260509175340 17 334 0.0 0.0 0.00 0.00 0.00 71 1010.3
20260509174836 17 334 0.0 0.0 0.00 0.00 0.00 70 1010.2
20260509174332 17 352 1.6 1.6 0.00 0.00 0.00 64 1010.2
20260509173827 17 290 0.0 1.6 0.00 0.00 0.00 63 1010.3
20260509173323 17 232 3.2 3.2 0.00 0.00 0.00 63 1010.3
20260509172820 17 318 1.6 1.6 0.00 0.00 0.00 64 1010.2
20260509172317 17 290 0.0 1.6 0.00 0.00 0.00 62 1010.3
20260509171812 17 289 0.0 1.6 0.00 0.00 0.00 62 1010.3
20260509171308 18 298 0.0 1.6 0.00 0.00 0.00 62 1010.3
20260509170805 18 292 0.0 1.6 0.00 0.00 0.00 60 1010.3
20260509170301 18 306 0.0 1.6 0.00 0.00 0.00 61 1010.4
20260509165800 18 311 0.0 0.0 0.00 0.00 0.00 61 1010.4
20260509165255 18 288 3.2 3.2 0.00 0.00 0.00 60 1010.2
20260509164751 18 309 1.6 1.6 0.00 0.00 0.00 61 1010.5
20260509164248 18 309 1.6 3.2 0.00 0.00 0.00 63 1010.4
20260509163745 17 308 0.0 0.0 0.00 0.00 0.00 64 1010.5
20260509163241 17 298 0.0 1.6 0.00 0.00 0.00 64 1010.3
20260509162740 17 283 1.6 3.2 0.00 0.00 0.00 64 1010.6
20260509162233 17 290 3.2 3.2 0.00 0.00 0.00 64 1010.4
20260509161729 17 252 1.6 1.6 0.00 0.00 0.00 64 1010.5
20260509161226 17 320 0.0 0.0 0.00 0.00 0.00 63 1010.5
20260509160721 17 318 0.0 0.0 0.00 0.00 0.00 63 1010.6
20260509160218 18 298 0.0 1.6 0.00 0.00 0.00 62 1010.2
20260509155713 17 290 1.6 3.2 0.00 0.00 0.00 63 1010.3
20260509155210 18 282 1.6 1.6 0.00 0.00 0.00 62 1010.3
20260509154706 18 307 1.6 1.6 0.00 0.00 0.00 60 1010.7
20260509154203 17 287 1.6 1.6 0.00 0.00 0.00 62 1010.5
20260509153700 18 278 1.6 3.2 0.00 0.00 0.00 61 1010.7
20260509153156 18 310 0.0 0.0 0.00 0.00 0.00 60 1010.6
20260509152652 18 322 3.2 3.2 0.00 0.00 0.00 61 1010.8
20260509152149 18 267 1.6 1.6 0.00 0.00 0.00 61 1010.8
20260509151646 17 293 1.6 1.6 0.00 0.00 0.00 63 1010.8
20260509151143 17 290 0.0 1.6 0.00 0.00 0.00 62 1011.1
20260509150641 17 299 0.0 0.0 0.00 0.00 0.00 63 1011.0
20260509150139 16 276 1.6 3.2 0.00 0.00 0.00 64 1011.0
20260509145635 17 222 1.6 3.2 0.00 0.00 0.00 65 1011.2
20260509145130 17 314 1.6 1.6 0.00 0.00 0.00 64 1011.3
20260509144627 17 295 1.6 1.6 0.00 0.00 0.00 63 1011.3
20260509144124 17 284 1.6 1.6 0.00 0.00 0.00 63 1011.2
20260509143621 17 303 0.0 0.0 0.00 0.00 0.00 64 1011.2
20260509143119 16 284 4.8 4.8 0.00 0.00 0.00 64 1011.3
20260509142614 16 267 1.6 1.6 0.00 0.00 0.00 66 1011.3
20260509142111 16 252 1.6 1.6 0.00 0.00 0.00 67 1011.2
20260509141607 16 283 1.6 1.6 0.00 0.00 0.00 68 1011.1
20260509141103 16 250 4.8 4.8 0.00 0.00 0.00 68 1011.1
20260509140600 16 264 4.8 4.8 0.00 0.00 0.00 68 1010.9
20260509140058 16 254 3.2 4.8 0.00 0.00 0.00 68 1011.1
20260509135555 16 315 6.4 11.3 0.00 0.00 0.00 69 1011.0
20260509135053 16 303 1.6 1.6 0.00 0.00 0.00 73 1011.0
20260509134549 16 285 1.6 1.6 0.00 0.00 0.00 73 1011.0
20260509134047 16 280 1.6 1.6 0.00 0.00 0.00 76 1011.1
20260509133544 16 310 1.6 3.2 0.00 0.00 0.00 75 1011.0
20260509133042 16 284 1.6 1.6 0.00 0.00 0.00 77 1010.9
20260509132540 16 302 0.0 1.6 0.00 0.00 0.00 78 1010.9
20260509132038 16 274 1.6 3.2 0.00 0.00 0.00 78 1010.9
20260509131533 15 298 1.6 1.6 0.00 0.00 0.00 79 1011.0
20260509131031 15 321 1.6 3.2 0.00 0.00 0.00 79 1011.1
20260509130526 15 298 1.6 3.2 0.00 0.00 0.00 79 1011.0
20260509130023 15 262 6.4 9.7 0.00 0.00 0.00 79 1011.0
20260509125520 15 315 0.0 1.6 0.00 0.00 0.00 80 1011.0
20260509125016 15 288 1.6 1.6 0.00 0.00 0.00 80 1011.1
20260509124513 15 308 4.8 4.8 0.00 0.00 0.00 79 1011.0
20260509124010 15 216 6.4 11.3 0.00 0.00 0.00 79 1011.0
20260509123508 15 214 4.8 4.8 0.00 0.00 0.00 79 1010.8
20260509123004 15 283 3.2 3.2 0.00 0.00 0.00 79 1011.0
20260509122500 15 272 4.8 4.8 0.00 0.00 0.00 79 1010.8
20260509121957 15 280 1.6 1.6 0.00 0.00 0.00 79 1010.8
20260509121454 15 236 1.6 1.6 0.00 0.00 0.00 79 1010.9
20260509120952 15 242 3.2 4.8 0.00 0.00 0.00 79 1010.9
20260509120450 15 235 4.8 8.0 0.00 0.00 0.00 79 1010.9
20260509115948 15 297 1.6 1.6 0.00 0.00 0.00 79 1010.9
20260509115445 15 333 4.8 4.8 0.00 0.00 0.00 79 1010.9
20260509114942 15 219 3.2 4.8 0.00 0.00 0.00 80 1010.9
20260509114440 15 268 3.2 4.8 0.00 0.00 0.00 80 1010.7
20260509113939 15 273 4.8 8.0 0.00 0.00 0.00 79 1010.9
20260509113436 14 257 3.2 8.0 0.00 0.00 0.00 80 1010.8
20260509112933 14 318 1.6 3.2 0.00 0.00 0.00 79 1010.7
20260509112430 14 269 3.2 3.2 0.00 0.00 0.00 79 1010.7
20260509111927 14 320 0.0 1.6 0.00 0.00 0.00 79 1010.8
20260509111425 14 339 3.2 4.8 0.00 0.00 0.00 79 1010.6
20260509110922 14 315 0.0 0.0 0.00 0.00 0.00 79 1010.6
20260509110417 14 314 1.6 1.6 0.00 0.00 0.00 79 1010.3
20260509105916 14 242 3.2 3.2 0.00 0.00 0.00 79 1010.6
20260509105414 14 303 0.0 0.0 0.00 0.00 0.00 78 1010.5
20260509104911 13 305 1.6 1.6 0.00 0.00 0.00 78 1010.4
20260509104408 13 300 0.0 0.0 0.00 0.00 0.00 77 1010.6
20260509103905 14 284 1.6 1.6 0.00 0.00 0.00 77 1010.4
20260509103402 13 306 0.0 1.6 0.00 0.00 0.00 77 1010.5
20260509102901 13 292 0.0 1.6 0.00 0.00 0.00 77 1010.4
20260509102358 13 296 0.0 0.0 0.00 0.00 0.00 77 1010.3
20260509101853 13 296 0.0 0.0 0.00 0.00 0.00 77 1010.3
20260509101349 13 298 0.0 0.0 0.00 0.00 0.00 77 1010.3